Regional Weather Roundup
Issued by NWS

Home | Current Version | Previous Version | Text Only | Print | Product List | Glossary Off
Versions: 1 2 3 4 5 6 7 8 9 10 11 12 13 14 15 16 17 18 19 20 21 22 23 24 25 26 27 28 29 30 31 32 33 34 35 36 37 38 39 40 41 42 43 44 45 46 47 48 49 50

000
ASUS45 KABQ 200810
RWRNM
NEW MEXICO REGIONAL WEATHER ROUNDUP
NATIONAL WEATHER SERVICE ALBUQUERQUE NM
100 AM MST TUE FEB 20 2018

NOTE: "FAIR" MEANS FEW OR NO CLOUDS BELOW 12,000 FEET AGL WITH NO
       SIGNIFICANT WEATHER OR OBSTRUCTIONS TO VISION.

      THIS PRODUCT IS RELEASED AS TWO VERSIONS.  ONE VERSION NEAR
      THE TOP OF THE HOUR CONTAINING PRELIMINARY DATA FROM ALBUQUERQUE
      AND OTHER STATIONS.  A FINAL VERSION WITH ADDITIONAL DATA IS
      ISSUED ABOUT 10 MINUTES AFTER THE HOUR.

NMZ501-503-504-510>518-200900-
NORTHWEST PLATEAU/NORTHCENTRAL MOUNTAINS

CITY           SKY/WX    TMP DP  RH WIND       PRES   REMARKS
FARMINGTON     CLOUDY    23  16  74 SW10      29.79R WCI  12
LOS ALAMOS     MOCLDY    32  18  55 S7G22     29.72R WCI  26
SANTA FE       LGT SNOW  30  28  92 SW14G20   29.74R FOG     WCI  19
TAOS           FLURRIES  28  21  74 W10       29.74S WCI  19
ANGEL FIRE     LGT SNOW  23  20  89 CALM      29.66R VSB 1

$$
NMZ402-403-502-505>509-200900-
WESTCENTRAL MOUNTAINS/SOUTHWEST MOUNTAINS

CITY           SKY/WX    TMP DP  RH WIND       PRES   REMARKS
GALLUP         CLOUDY    22  11  62 W20       29.82R WCI   7
GRANTS         CLOUDY    23  16  73 NW14G28   29.82R WCI  11
SILVER CITY    CLOUDY    41  31  67 W20G28    29.83S

$$
NMZ407-409-411-412-200900-
SOUTHERN DESERTS

CITY           SKY/WX    TMP DP  RH WIND       PRES   REMARKS
DEMING         CLOUDY    49  34  56 SW12      29.83R
LAS CRUCES     FAIR      51  32  48 SW22G35   29.83R
ALAMOGORDO     CLOUDY    52  34  50 S20G25    29.82S
T OR C         FAIR      48  34  58 S15       29.76R

$$
NMZ519>523-200900-
CENTRAL VALLEYS/CENTRAL HIGHLANDS

CITY           SKY/WX    TMP DP  RH WIND       PRES   REMARKS
ALBUQUERQUE    MOCLDY    35  26  69 N18       29.81R WCI  24
MORIARTY ARPT  CLOUDY    37  33  85 W14       29.77R WCI  28
CLINES CORNERS FAIR      30  25  81 W39G49    29.66R WCI  13
BELEN          CLOUDY    39  28  65 NW17G23   29.78R WCI  30
SOCORRO        MOCLDY    49  22  34 SW15G24   29.76R

$$
NMZ524>526-539-540-200900-
SOUTHCENTRAL MOUNTAINS

CITY           SKY/WX    TMP DP  RH WIND       PRES   REMARKS
RUIDOSO        NOT AVBL

$$
NMZ527>531-200900-
NORTHEAST HIGHLANDS/NORTHEAST PLAINS

CITY           SKY/WX    TMP DP  RH WIND       PRES   REMARKS
LAS VEGAS      MOCLDY    36  26  67 SW25G33   29.63R WCI  24
RATON          MOCLDY    43  18  36 W17G30    29.56R
CLAYTON        FAIR      50  27  40 SW21G29   29.60R

$$
NMZ532>537-200900-
EASTCENTRAL PLAINS

CITY           SKY/WX    TMP DP  RH WIND       PRES   REMARKS
SANTA ROSA     FAIR      49  29  46 S15G21    29.66R
TUCUMCARI      FAIR      49  32  52 SW16      29.63R
CANNON AFB     FAIR      49  40  71 S15       29.71S
CLOVIS AIRPORT NOT AVBL

$$
NMZ028-029-538-200900-
SOUTHEAST PLAINS

CITY           SKY/WX    TMP DP  RH WIND       PRES   REMARKS
ROSWELL        FAIR      59  31  34 SW18G30   29.67R
ARTESIA        FAIR      59  34  38 W10G18    29.72F
CARLSBAD       FAIR      61  36  39 SW13      29.71S
HOBBS          FAIR      48  41  76 SW9       29.75S


$$



USA.gov is the U.S. government's official web portal to all federal, state and local government web resources and services.